This is the latest recevied weather packets stored in our database for station/object LU8FCJ-5. If no packets are shown the sender has not sent any weather packets the latest 10 day(s).
| Time | Temp. | Humidity | Pressure | Rain* | Wind** | Luminosity | Snow |
|---|---|---|---|---|---|---|---|
| 1777726099 | 11.11° C | 66% | 1028.4 hPa | 0 mm | - | - | - |
| 1777725789 | 10.56° C | 69% | 1028.2 hPa | 0 mm | - | - | - |
| 1777725478 | 10° C | 68% | 1028.2 hPa | 0 mm | - | - | - |
| 1777725168 | 10° C | 70% | 1028.2 hPa | 0 mm | - | - | - |
| 1777724858 | 10° C | 70% | 1028.1 hPa | 0 mm | - | - | - |
| 1777724548 | 10° C | 73% | 1027.8 hPa | 0 mm | - | - | - |
| 1777724239 | 9.44° C | 73% | 1027.9 hPa | 0 mm | - | - | - |
| 1777723928 | 8.89° C | 74% | 1028.2 hPa | 0 mm | - | - | - |
| 1777723617 | 8.89° C | 75% | 1027.7 hPa | 0 mm | - | - | - |
| 1777723308 | 8.33° C | 74% | 1027.6 hPa | 0 mm | - | - | - |
| 1777722997 | 8.33° C | 75% | 1027.5 hPa | 0 mm | - | - | - |
| 1777722687 | 8.33° C | 75% | 1027.5 hPa | 0 mm | - | - | - |
| 1777722378 | 7.78° C | 78% | 1027.4 hPa | 0 mm | - | - | - |
| 1777722067 | 7.22° C | 82% | 1027.4 hPa | 0 mm | - | - | - |
| 1777721757 | 6.67° C | 83% | 1027.2 hPa | 0 mm | - | - | - |
| 1777721447 | 6.67° C | 83% | 1027 hPa | 0 mm | - | - | - |
| 1777721136 | 6.11° C | 84% | 1026.9 hPa | 0 mm | - | - | - |
| 1777720835 | 5.56° C | 85% | 1027.1 hPa | 0 mm | - | - | - |
| 1777720516 | 5° C | 85% | 1027 hPa | 0 mm | - | - | - |
| 1777720206 | 3.89° C | 87% | 1026.8 hPa | 0 mm | - | - | - |
| 1777719908 | 3.89° C | 86% | 1026.5 hPa | 0 mm | - | - | - |
| 1777719586 | 3.89° C | 87% | 1026.6 hPa | 0 mm | - | - | - |
| 1777719275 | 3.33° C | 88% | 1026.6 hPa | 0 mm | - | - | - |
| 1777718967 | 3.33° C | 87% | 1026.6 hPa | 0 mm | - | - | - |
| 1777718656 | 3.33° C | 88% | 1026.3 hPa | 0 mm | - | - | - |
* Rain latest hour (hover to see other rain measurements)
** Current wind speed in m/s (hover to see current wind gust speed)